Hourly Data Report for October 11, 2015

All times are specified in Local Standard Time (LST). Add 1 hour to adjust for Daylight Saving Time where and when it is observed.

ARVIAT A
NUNAVUT

61°05'38.000" N
94°04'18.000" W
10.40 m
2300427
71174
YEK

Download Data

Hourly Data (October 2015)
Hourly Data Report for October 11, 2015
Temp Definition
°C
Dew Point Temp Definition
°C
Rel Hum Definition
%
Wind Dir Definition
10's deg

Wind Spd Definition
km/h
Visibility Definition
km
Stn Press Definition
kPa
Hmdx Definition


Wind Chill Definition


Weather Definition


TIME
00:00 Legend Double Dagger -0.2 -0.8 96 11 54 2.8 99.37   -9 Snow
01:00 Legend Double Dagger -0.4 -0.4 100 11 58 0.8 99.30   -9 Moderate Snow
02:00 Legend Double Dagger 0.1 -0.6 95 11 54 3.6 99.24     Fog
03:00 Legend Double Dagger 0.3 -0.1 97 12 46 1.6 99.21     Snow
04:00 Legend Double Dagger 0.4 0.1 98 11 55 1.6 99.18     Snow
05:00 Legend Double Dagger 0.5 -0.1 96 10 52 6.4 99.17     Rain,Fog
06:00 Legend Double Dagger 0.4 -0.6 93 10 54 4.0 99.20     Rain,Fog
07:00 Legend Double Dagger 0.5 -0.2 95 10 52 3.2 99.18     Rain,Fog
08:00 Legend Double Dagger 0.6 -0.7 91 10 55 4.8 99.18     Rain,Fog
09:00 Legend Double Dagger 0.7 0.0 95 10 50 11.3 99.27     Rain
10:00 Legend Double Dagger 0.9 -0.4 91 10 45 12.9 99.31     Rain
11:00 Legend Double Dagger 1.0 0.0 93 10 43 14.5 99.34     Rain
12:00 Legend Double Dagger 1.3 -0.3 89 9 52 16.1 99.42     LegendNANA
13:00 Legend Double Dagger 1.3 0.3 93 10 37 16.1 99.48     LegendNANA
14:00 Legend Double Dagger 1.3 -0.1 91 10 35 12.9 99.55     Rain
15:00 Legend Double Dagger 1.4 -0.5 88 9 39 16.1 99.61     LegendNANA
16:00 Legend Double Dagger 1.6 -0.8 84 8 37 16.1 99.67     LegendNANA
17:00 Legend Double Dagger 1.4 -0.7 86 8 30 16.1 99.77     Rain
18:00 Legend Double Dagger 1.6 -1.1 82 8 37 16.1 99.83     LegendNANA
19:00 Legend Double Dagger 1.6 -0.5 86 8 32 16.1 99.89     LegendNANA
20:00 Legend Double Dagger 1.5 -0.1 89 6 32 16.1 99.96     Rain
21:00 Legend Double Dagger 0.9 0.5 97 7 30 16.1 100.04     Rain
22:00 Legend Double Dagger 1.3 -0.2 90 7 28 16.1 100.08     LegendNANA
23:00 Legend Double Dagger 0.8 -0.1 94 7 26 16.1 100.12     Rain

Notes on Data Quality.

Legend

  • E = Estimated
  • M = Missing
  • NA = Not Available
  • ‡ = Partner data that is not subject to review by the National Climate Archives
Date modified: